Hope Airport
CYHE : now visible

Airfield :











YOU CAN JOIN US ON...

 
LOGIN :

Register | Disclaimer

   EN    FR    IT 

 









Legend :    VFR   Marginal VFR   IFR   Intensive IFR   Very Intensive IFR
Visi :
Ceiling :
>= 8 km
>= 3000ft
5 to 8 km
1000 to 3000 ft
1500m to 5 km
500 to 1000 ft
800 to 1500m
200 to 500 ft
< 800m
< 200 ft
Symbols :   Thunderstorms  Fog  Heavy snow  Heavy precipitations  Wind > 20 kt






- Airport Elevation : 128 ft
- IATA code : YHE


CYHE - Hope

CURRENT METAR :
  • 082200Z AUTO 24017G33KT 200V310 9SM FEW060 SCT072 BKN095 07/M04 A2982 RMK SLP099

EXPIRED METARs :
  • 082100Z AUTO 28015G35KT 250V320 9SM SCT055 07/M03 A2981 RMK SLP099
  • 082024Z AUTO 28021G32KT 230V320 9SM FEW002 BKN055 07/M03 A2981 RMK SLP098
  • 082000Z AUTO 28015G25KT 07/M03 A2980 RMK CLD MISG WX MISG VIS MISG PCPN MISG SLP095

TAF N/A
CZVR FIR / North America



MET'MAP, your aeronautical weather chart ! - Copyright ORBIFLY December 2007 - Disclaimer

ORBIFLY MET'MAP TEAM :

Programming & Development : Alexandra Zaïnal
Concept & original design : Baudouin d'Aumeries
Assistance for programming : Marc-Olivier Méhu
Technical & hardware support : Manuel Goepfert

Contact : metmap@orbifly.com




SOURCES & CREDITS :

   NOAA       Earth
Advisory